JNA436 RKPC-RKTH

Flight info

Callsign JNA436
Flight time 0h 38m
Altitude 21000
Route AKPON1E AKPON Y571 PSN Y744 APARU PUDEN1
Aircraft B738/M-SDE2E3FGHIRWXY/LB1

Departure

Time 2026-05-05 02:41
Airport Jeju International Airport (RKPC)

Arrival

Time 2026-05-05 03:19
Airport Pohang Airport (G-815/K-3) (RKTH)
Time Latitude Longitude Altitude Speed Heading
2026-05-05 02:20 33.50811 126.49034 93 ft 0 kts 329°
2026-05-05 02:35 33.50821 126.49027 93 ft 7 kts 329°
2026-05-05 02:36 33.50847 126.49009 94 ft 3 kts 330°
2026-05-05 02:36 33.50878 126.48972 93 ft 10 kts 285°
2026-05-05 02:36 33.50841 126.48876 93 ft 17 kts 239°
2026-05-05 02:36 33.50772 126.48732 94 ft 22 kts 244°
2026-05-05 02:37 33.50687 126.48574 93 ft 23 kts 234°
2026-05-05 02:37 33.50611 126.48413 92 ft 21 kts 250°
2026-05-05 02:37 33.50526 126.48259 93 ft 26 kts 233°
2026-05-05 02:37 33.50425 126.48070 94 ft 26 kts 238°
2026-05-05 02:38 33.50334 126.47890 93 ft 26 kts 239°
2026-05-05 02:38 33.50236 126.47696 93 ft 27 kts 239°
2026-05-05 02:38 33.50139 126.47515 93 ft 25 kts 239°
2026-05-05 02:38 33.50054 126.47343 93 ft 23 kts 238°
2026-05-05 02:39 33.49971 126.47182 93 ft 22 kts 238°
2026-05-05 02:39 33.49891 126.47028 95 ft 21 kts 241°
2026-05-05 02:39 33.49933 126.46901 91 ft 16 kts 329°
2026-05-05 02:39 33.50028 126.46915 90 ft 16 kts 56°
2026-05-05 02:40 33.50041 126.46940 89 ft 0 kts 58°
2026-05-05 02:40 33.50052 126.46962 91 ft 14 kts 58°
2026-05-05 02:40 33.50223 126.47295 93 ft 85 kts 58°
2026-05-05 02:40 33.50664 126.48144 93 ft 152 kts 57°
2026-05-05 02:41 33.51261 126.49335 471 ft 181 kts 59°
2026-05-05 02:41 33.51913 126.50672 1318 ft 188 kts 58°
2026-05-05 02:41 33.52564 126.51969 2463 ft 176 kts 58°
2026-05-05 02:41 33.53264 126.53251 3110 ft 197 kts 57°
2026-05-05 02:42 33.54062 126.54746 3411 ft 226 kts 60°
2026-05-05 02:42 33.54928 126.56444 3737 ft 245 kts 60°
2026-05-05 02:42 33.55850 126.58256 4083 ft 266 kts 59°
2026-05-05 02:42 33.56839 126.60191 4857 ft 274 kts 59°
2026-05-05 02:43 33.57832 126.62132 5871 ft 274 kts 59°
2026-05-05 02:43 33.58842 126.64105 6749 ft 280 kts 59°
2026-05-05 02:43 33.59871 126.66117 7568 ft 285 kts 59°
2026-05-05 02:43 33.60917 126.68162 8423 ft 289 kts 59°
2026-05-05 02:44 33.61965 126.70215 9262 ft 294 kts 59°
2026-05-05 02:44 33.63042 126.72326 10111 ft 298 kts 59°
2026-05-05 02:44 33.64126 126.74526 10536 ft 318 kts 65°
2026-05-05 02:44 33.64899 126.77120 10714 ft 342 kts 75°
2026-05-05 02:45 33.65561 126.79975 10914 ft 366 kts 76°
2026-05-05 02:45 33.66235 126.82985 11367 ft 378 kts 76°
2026-05-05 02:45 33.66930 126.86056 12059 ft 383 kts 76°
2026-05-05 02:45 33.67644 126.89160 12794 ft 387 kts 75°
2026-05-05 02:46 33.68377 126.92299 13537 ft 391 kts 75°
2026-05-05 02:46 33.69113 126.95419 14203 ft 396 kts 75°
2026-05-05 02:46 33.69870 126.98619 14812 ft 401 kts 75°
2026-05-05 02:46 33.70642 127.01871 15410 ft 406 kts 75°
2026-05-05 02:47 33.71423 127.05169 16024 ft 411 kts 75°
2026-05-05 02:47 33.72201 127.08456 16616 ft 415 kts 75°
2026-05-05 02:47 33.72995 127.11812 17227 ft 420 kts 75°
2026-05-05 02:47 33.73796 127.15208 17811 ft 424 kts 75°
2026-05-05 02:48 33.74606 127.18643 18374 ft 429 kts 75°
2026-05-05 02:48 33.75422 127.22110 18894 ft 434 kts 75°
2026-05-05 02:48 33.76247 127.25618 19379 ft 438 kts 75°
2026-05-05 02:48 33.77076 127.29153 19928 ft 440 kts 75°
2026-05-05 02:49 33.78016 127.32628 20460 ft 443 kts 65°
2026-05-05 02:49 33.79733 127.35695 21023 ft 444 kts 47°
2026-05-05 02:49 33.81820 127.38477 21183 ft 453 kts 46°
2026-05-05 02:49 33.83968 127.41294 21196 ft 464 kts 46°
2026-05-05 02:50 33.86177 127.44200 21196 ft 472 kts 46°
2026-05-05 02:50 33.88399 127.47145 21186 ft 473 kts 47°
2026-05-05 02:50 33.90590 127.50079 21183 ft 471 kts 47°
2026-05-05 02:50 33.92767 127.53016 21185 ft 469 kts 47°
2026-05-05 02:51 33.94908 127.55914 21182 ft 468 kts 47°
2026-05-05 02:51 33.97081 127.58862 21183 ft 468 kts 47°
2026-05-05 02:51 33.99242 127.61797 21185 ft 467 kts 47°
2026-05-05 02:51 34.01383 127.64704 21186 ft 467 kts 47°
2026-05-05 02:52 34.03538 127.67633 21192 ft 467 kts 47°
2026-05-05 02:52 34.05704 127.70577 21192 ft 467 kts 47°
2026-05-05 02:52 34.07858 127.73508 21180 ft 467 kts 47°
2026-05-05 02:52 34.10015 127.76444 21183 ft 467 kts 47°
2026-05-05 02:53 34.12175 127.79387 21187 ft 467 kts 47°
2026-05-05 02:53 34.14305 127.82293 21189 ft 468 kts 47°
2026-05-05 02:53 34.16468 127.85244 21188 ft 468 kts 47°
2026-05-05 02:53 34.18632 127.88201 21197 ft 468 kts 47°
2026-05-05 02:54 34.20790 127.91151 21189 ft 468 kts 47°
2026-05-05 02:54 34.22941 127.94093 21181 ft 467 kts 47°
2026-05-05 02:54 34.25093 127.97041 21175 ft 467 kts 47°
2026-05-05 02:54 34.27242 127.99987 21185 ft 467 kts 47°
2026-05-05 02:55 34.29388 128.02932 21189 ft 467 kts 48°
2026-05-05 02:55 34.31534 128.05880 21196 ft 467 kts 48°
2026-05-05 02:55 34.33652 128.08791 21193 ft 466 kts 48°
2026-05-05 02:55 34.35798 128.11743 21187 ft 466 kts 48°
2026-05-05 02:56 34.37944 128.14699 21183 ft 466 kts 48°
2026-05-05 02:56 34.40083 128.17646 21185 ft 466 kts 48°
2026-05-05 02:56 34.42222 128.20597 21177 ft 466 kts 48°
2026-05-05 02:56 34.44362 128.23550 21182 ft 466 kts 48°
2026-05-05 02:57 34.46483 128.26476 21185 ft 466 kts 48°
2026-05-05 02:57 34.48624 128.29434 21187 ft 466 kts 48°
2026-05-05 02:57 34.50770 128.32403 21186 ft 467 kts 48°
2026-05-05 02:57 34.52911 128.35369 21185 ft 467 kts 48°
2026-05-05 02:58 34.55057 128.38345 21187 ft 467 kts 48°
2026-05-05 02:58 34.57198 128.41316 21185 ft 467 kts 48°
2026-05-05 02:58 34.59311 128.44251 21196 ft 467 kts 48°
2026-05-05 02:58 34.61454 128.47229 21187 ft 466 kts 48°
2026-05-05 02:59 34.63588 128.50197 21180 ft 465 kts 48°
2026-05-05 02:59 34.65713 128.53155 21182 ft 464 kts 48°
2026-05-05 02:59 34.67836 128.56113 21185 ft 463 kts 48°
2026-05-05 02:59 34.69956 128.59070 21186 ft 463 kts 48°
2026-05-05 03:00 34.72047 128.61990 21187 ft 463 kts 48°
2026-05-05 03:00 34.74166 128.64950 21182 ft 463 kts 49°
2026-05-05 03:00 34.76280 128.67908 21172 ft 463 kts 48°
2026-05-05 03:00 34.78393 128.70866 21184 ft 463 kts 48°
2026-05-05 03:01 34.80509 128.73830 21198 ft 464 kts 48°
2026-05-05 03:01 34.82630 128.76805 21180 ft 464 kts 49°
2026-05-05 03:01 34.84748 128.79777 21185 ft 464 kts 49°
2026-05-05 03:01 34.86864 128.82749 21184 ft 464 kts 49°
2026-05-05 03:02 34.88946 128.85675 21104 ft 459 kts 49°
2026-05-05 03:02 34.91166 128.88449 20808 ft 444 kts 39°
2026-05-05 03:02 34.93589 128.90622 20565 ft 433 kts 31°
2026-05-05 03:02 34.96220 128.92362 20311 ft 428 kts 21°
2026-05-05 03:03 34.98988 128.93672 20081 ft 427 kts 19°
2026-05-05 03:03 35.01774 128.94940 19843 ft 426 kts 19°
2026-05-05 03:03 35.03612 128.95785 19679 ft 425 kts 20°
2026-05-05 03:03 35.07307 128.97516 19362 ft 424 kts 20°
2026-05-05 03:04 35.09131 128.98381 19205 ft 423 kts 20°
2026-05-05 03:04 35.11871 128.99686 18970 ft 422 kts 20°
2026-05-05 03:04 35.14581 129.01046 18731 ft 421 kts 23°
2026-05-05 03:04 35.17251 129.02511 18521 ft 419 kts 24°
2026-05-05 03:05 35.19885 129.04002 18246 ft 413 kts 24°
2026-05-05 03:05 35.22481 129.05473 17983 ft 413 kts 24°
2026-05-05 03:05 35.25099 129.06946 17704 ft 414 kts 24°
2026-05-05 03:05 35.27704 129.08401 17317 ft 406 kts 24°
2026-05-05 03:06 35.30210 129.09793 16836 ft 392 kts 24°
2026-05-05 03:06 35.32659 129.11152 16309 ft 381 kts 24°
2026-05-05 03:06 35.35053 129.12481 15794 ft 373 kts 24°
2026-05-05 03:06 35.37402 129.13784 15305 ft 366 kts 24°
2026-05-05 03:07 35.39723 129.15068 14809 ft 368 kts 24°
2026-05-05 03:07 35.42084 129.16381 14332 ft 388 kts 24°
2026-05-05 03:07 35.44607 129.17783 13725 ft 391 kts 24°
2026-05-05 03:07 35.47025 129.19125 13463 ft 383 kts 24°
2026-05-05 03:08 35.49485 129.20488 13210 ft 389 kts 25°
2026-05-05 03:08 35.51970 129.21810 12929 ft 386 kts 18°
2026-05-05 03:08 35.54609 129.22213 12650 ft 383 kts 354°
2026-05-05 03:08 35.57180 129.21586 12425 ft 369 kts 343°
2026-05-05 03:09 35.59577 129.20751 12105 ft 353 kts 342°
2026-05-05 03:09 35.61921 129.19901 11451 ft 347 kts 342°
2026-05-05 03:09 35.64219 129.19049 10827 ft 343 kts 341°
2026-05-05 03:09 35.66490 129.18207 10210 ft 339 kts 341°
2026-05-05 03:10 35.68738 129.17371 9542 ft 335 kts 340°
2026-05-05 03:10 35.70943 129.16489 8887 ft 331 kts 341°
2026-05-05 03:10 35.73139 129.15667 8230 ft 328 kts 341°
2026-05-05 03:10 35.75321 129.14874 7543 ft 326 kts 341°
2026-05-05 03:11 35.77445 129.14076 6990 ft 321 kts 341°
2026-05-05 03:11 35.79580 129.13277 6385 ft 318 kts 341°
2026-05-05 03:11 35.81640 129.12620 6416 ft 291 kts 342°
2026-05-05 03:11 35.83531 129.11984 6462 ft 272 kts 342°
2026-05-05 03:12 35.85326 129.11348 6499 ft 266 kts 341°
2026-05-05 03:12 35.87084 129.10710 6553 ft 268 kts 341°
2026-05-05 03:12 35.88897 129.10087 6553 ft 273 kts 348°
2026-05-05 03:12 35.90798 129.10226 6365 ft 275 kts 11°
2026-05-05 03:13 35.92620 129.10679 6302 ft 258 kts 10°
2026-05-05 03:13 35.94323 129.11186 6128 ft 244 kts 11°
2026-05-05 03:13 35.95918 129.11668 6011 ft 229 kts 11°
2026-05-05 03:13 35.97416 129.12202 5792 ft 223 kts 25°
2026-05-05 03:14 35.98481 129.13487 5545 ft 216 kts 64°
2026-05-05 03:14 35.99022 129.15205 5317 ft 214 kts 74°
2026-05-05 03:14 35.99219 129.17044 4655 ft 224 kts 102°
2026-05-05 03:14 35.98979 129.18982 3981 ft 234 kts 101°
2026-05-05 03:15 35.98747 129.20967 3536 ft 228 kts 101°
2026-05-05 03:15 35.98604 129.22865 3207 ft 216 kts 94°
2026-05-05 03:15 35.98606 129.24660 2918 ft 201 kts 93°
2026-05-05 03:15 35.98627 129.26330 2685 ft 190 kts 92°
2026-05-05 03:16 35.98637 129.27919 2430 ft 178 kts 95°
2026-05-05 03:16 35.98650 129.29400 2181 ft 168 kts 94°
2026-05-05 03:16 35.98661 129.30786 2008 ft 153 kts 92°
2026-05-05 03:16 35.98681 129.32141 1803 ft 166 kts 93°
2026-05-05 03:17 35.98696 129.33586 1512 ft 161 kts 95°
2026-05-05 03:17 35.98712 129.34918 1319 ft 155 kts 89°
2026-05-05 03:17 35.98811 129.36240 1164 ft 152 kts 94°
2026-05-05 03:17 35.98803 129.37545 905 ft 152 kts 95°
2026-05-05 03:18 35.98764 129.38829 601 ft 150 kts 94°
2026-05-05 03:18 35.98775 129.40092 304 ft 144 kts 89°
2026-05-05 03:18 35.98791 129.41325 93 ft 143 kts 92°
2026-05-05 03:18 35.98794 129.42430 74 ft 105 kts 90°
2026-05-05 03:19 35.98751 129.43176 66 ft 12 kts 175°
2026-05-05 03:19 35.98673 129.43201 62 ft 12 kts 138°
2026-05-05 03:19 35.98605 129.43268 62 ft 13 kts 168°
2026-05-05 03:20 35.98554 129.43322 67 ft 6 kts 109°
2026-05-05 03:20 35.98521 129.43336 71 ft 4 kts 173°
2026-05-05 03:20 35.98491 129.43338 66 ft 4 kts 177°
2026-05-05 03:20 35.98479 129.43339 67 ft 0 kts 178°